Roosevelt Roads, PR

6:37 PM AST on June 21, 2018 (GMT -0400)
Roosevelt Roads Ns

Weather History for TJNR - September, 2017

Change the Weather History Date:

Thursday, September 14, 2017

  Actual Average Record
Temperature  
Mean Temperature 80 °F -  
Max Temperature 86 °F 86 °F 90 °F (2002)
Min Temperature 75 °F 74 °F 75 °F (2001)
Cooling Degree Days 16    
Growing Degree Days 30 (Base 50)    
Moisture  
Dew Point 78 °F    
Average Humidity 92    
Maximum Humidity 100    
Minimum Humidity 82    
Precipitation  
Precipitation 0.81 in - - ()
Sea Level Pressure  
Sea Level Pressure 29.96 in    
Wind  
Wind Speed 7 mph (SSW)    
Max Wind Speed 17 mph    
Max Gust Speed 26 mph    
Visibility 8 miles    
Events Fog , Rain    
Averages and records for this station are not official NWS values.
T = Trace of Precipitation, MM = Missing Value Source: NWS Daily Summary

Daily Weather History Graph

Daily Weather History Graph

Search for Another Location

Airport or City:

Astronomy

Sep. 14, 2017 Rise Set
Actual Time 6:10 AM AST 6:25 PM AST
Civil Twilight 5:48 AM AST 6:47 PM AST
Nautical Twilight 5:23 AM AST 7:12 PM AST
Astronomical Twilight 4:57 AM AST 7:38 PM AST
Moon 12:39 AM AST (9/14) 2:02 PM AST (9/14)
Length of Visible Light 12h 58m
Length of Day
12h 15m
Waning Crescent, 34% of the Moon is Illuminated
Sep 14
Waning Crescent
Sep 20
New
Sep 27
First Quarter
Oct 5
Full
Oct 12
Last Quarter

Hourly Weather History & Observations

Time (AST) Temp. Heat Index Dew Point Humidity Pressure Visibility Wind Dir Wind Speed Gust Speed Precip Events Conditions
12:53 AM 79.0 °F - 78.1 °F 97% 29.94 in 10.0 mi WSW 3.5 mph - N/A   Clear
1:53 AM 78.1 °F - 78.1 °F 100% 29.93 in 10.0 mi SW 4.6 mph - N/A   Clear
2:44 AM 78.1 °F - 78.1 °F 100% 29.92 in 10.0 mi Calm Calm - N/A   Mostly Cloudy
2:53 AM 79.0 °F - 78.1 °F 97% 29.92 in 10.0 mi Calm Calm - N/A   Mostly Cloudy
3:53 AM 79.0 °F - 78.1 °F 97% 29.90 in 10.0 mi WSW 8.1 mph - 0.02 in   Scattered Clouds
4:53 AM 78.1 °F - 77.0 °F 96% 29.90 in 10.0 mi Calm Calm - N/A   Clear
5:53 AM 78.1 °F - 77.0 °F 96% 29.92 in 10.0 mi Calm Calm - N/A   Clear
6:53 AM 78.1 °F - 77.0 °F 96% 29.94 in 10.0 mi WNW 3.5 mph - N/A   Clear
7:53 AM 84.2 °F 96.1 °F 78.8 °F 84% 29.95 in 10.0 mi SSW 4.6 mph - N/A   Clear
8:53 AM 84.0 °F 97.3 °F 80.1 °F 88% 29.96 in 10.0 mi SSW 6.9 mph - N/A   Partly Cloudy
9:41 AM 86.0 °F 100.8 °F 80.1 °F 82% 29.97 in 10.0 mi South 10.4 mph - N/A   Mostly Cloudy
9:48 AM 86.0 °F 101.9 °F 80.6 °F 84% 29.97 in 10.0 mi SSW 9.2 mph - N/A   Scattered Clouds
9:53 AM 86.0 °F 100.8 °F 80.1 °F 82% 29.98 in 10.0 mi South 9.2 mph - N/A   Scattered Clouds
10:32 AM 84.0 °F 94.8 °F 78.1 °F 82% 29.99 in 10.0 mi South 17.3 mph 26.5 mph N/A   Mostly Cloudy
10:41 AM 81.0 °F 88.6 °F 78.1 °F 91% 29.99 in 1.8 mi South 16.1 mph - 0.08 in Rain Heavy Rain
10:44 AM 80.1 °F 86.4 °F 78.1 °F 94% 29.99 in 1.2 mi South 13.8 mph 24.2 mph 0.15 in Rain Heavy Rain
10:53 AM 80.1 °F 86.7 °F 79.0 °F 96% 29.99 in 0.5 mi SW 10.4 mph - 0.37 in Fog , Rain Heavy Rain
11:00 AM 80.1 °F 86.4 °F 78.1 °F 94% 29.98 in 1.8 mi WSW 11.5 mph - 0.01 in Rain Light Rain
11:02 AM 80.1 °F 86.4 °F 78.1 °F 94% 29.98 in 3.0 mi WSW 10.4 mph - 0.02 in Rain Light Rain
11:11 AM 80.1 °F 85.8 °F 77.0 °F 90% 29.98 in 7.0 mi WSW 9.2 mph - 0.02 in Rain Light Rain
11:21 AM 81.0 °F 88.6 °F 78.1 °F 91% 29.97 in 10.0 mi WSW 8.1 mph - 0.02 in Rain Light Rain
11:53 AM 84.0 °F 98.1 °F 81.0 °F 90% 29.97 in 10.0 mi SW 9.2 mph - 0.02 in   Clear
12:25 PM 86.0 °F 102.5 °F 81.0 °F 85% 29.95 in 10.0 mi South 13.8 mph - 0.00 in   Mostly Cloudy
12:34 PM 86.0 °F 100.8 °F 80.1 °F 82% 29.95 in 10.0 mi SSW 12.7 mph - 0.00 in   Scattered Clouds
12:53 PM 86.0 °F 100.8 °F 80.1 °F 82% 29.95 in 10.0 mi South 11.5 mph - 0.00 in   Partly Cloudy
1:53 PM 84.9 °F 97.5 °F 79.0 °F 82% 29.94 in 10.0 mi South 11.5 mph - N/A   Clear
2:53 PM 84.9 °F 97.5 °F 79.0 °F 82% 29.92 in 10.0 mi South 10.4 mph - N/A   Clear
3:33 PM 79.0 °F - 77.0 °F 94% 29.94 in 1.8 mi South 15.0 mph - 0.07 in Rain Rain
3:36 PM 78.1 °F - 77.0 °F 96% 29.95 in 1.2 mi SSW 12.7 mph - 0.13 in Rain Heavy Rain
3:43 PM 77.0 °F - 75.9 °F 96% 29.95 in 1.5 mi SSW 13.8 mph 21.9 mph 0.16 in Rain Rain
3:53 PM 75.9 °F - 75.0 °F 97% 29.95 in 1.0 mi SW 6.9 mph - 0.29 in Rain Heavy Rain
4:01 PM 75.9 °F - 75.9 °F 100% 29.94 in 0.8 mi SSW 5.8 mph - 0.07 in Rain Heavy Rain
4:07 PM 75.9 °F - 75.9 °F 100% 29.93 in 1.5 mi WSW 6.9 mph - 0.09 in Rain Rain
4:15 PM 77.0 °F - 75.9 °F 96% 29.92 in 3.0 mi WSW 4.6 mph - 0.10 in Rain Light Rain
4:53 PM 78.1 °F - 77.0 °F 96% 29.93 in 9.0 mi SSW 6.9 mph - 0.10 in   Mostly Cloudy
5:53 PM 78.1 °F - 75.9 °F 93% 29.94 in 10.0 mi SW 5.8 mph - 0.01 in   Partly Cloudy
6:08 PM 79.0 °F - 77.0 °F 94% 29.94 in 10.0 mi SSW 5.8 mph - N/A   Mostly Cloudy
6:18 PM 79.0 °F - 75.9 °F 90% 29.95 in 10.0 mi SSW 5.8 mph - N/A   Scattered Clouds
6:53 PM 79.0 °F - 77.0 °F 94% 29.97 in 10.0 mi SSW 6.9 mph - N/A   Mostly Cloudy
7:03 PM 80.1 °F 85.8 °F 77.0 °F 90% 29.97 in 10.0 mi SSW 6.9 mph - N/A   Overcast
7:34 PM 79.0 °F - 77.0 °F 94% 29.98 in 10.0 mi SSW 6.9 mph - N/A   Overcast
7:53 PM 80.1 °F 85.8 °F 77.0 °F 90% 29.99 in 10.0 mi SSW 6.9 mph - N/A   Mostly Cloudy
8:10 PM 80.1 °F 86.4 °F 78.1 °F 94% 29.99 in 10.0 mi South 6.9 mph - N/A   Mostly Cloudy
8:40 PM 80.1 °F 86.4 °F 78.1 °F 94% 29.99 in 10.0 mi SW 6.9 mph - N/A   Scattered Clouds
8:53 PM 79.0 °F - 78.1 °F 97% 30.00 in 10.0 mi SSW 8.1 mph - N/A   Partly Cloudy
9:26 PM 79.0 °F - 77.0 °F 94% 30.00 in 10.0 mi SSW 8.1 mph - N/A   Mostly Cloudy
9:38 PM 79.0 °F - 75.9 °F 90% 30.01 in 10.0 mi South 12.7 mph - N/A   Scattered Clouds
9:53 PM 79.0 °F - 75.9 °F 90% 30.01 in 10.0 mi South 13.8 mph - N/A   Partly Cloudy
10:53 PM 79.0 °F - 75.0 °F 88% 30.01 in 10.0 mi SSW 8.1 mph - N/A   Clear
11:53 PM 79.0 °F - 73.0 °F 82% 30.01 in 10.0 mi SSW 9.2 mph - N/A   Clear